Selinsgrove, PA

6:55 PM EDT on September 25, 2017 (GMT -0400)
Penn Valley

Weather History for KSEG - November, 2011

Change the Weather History Date:

Thursday, November 3, 2011

  Actual Average (KIPT) Record (KIPT)
Temperature  
Mean Temperature 46 °F -  
Max Temperature 61 °F 53 °F 76 °F (1990)
Min Temperature 32 °F 34 °F 20 °F (1951)
Degree Days  
Heating Degree Days 19    
Moisture  
Dew Point 37 °F    
Average Humidity 87    
Maximum Humidity 100    
Minimum Humidity 51    
Precipitation  
Precipitation 0.00 in - - ()
Sea Level Pressure  
Sea Level Pressure 30.10 in    
Wind  
Wind Speed 0 mph (SE)    
Max Wind Speed 6 mph    
Max Gust Speed -    
Visibility 4 miles    
Events Fog    
Averages and records for this station are not official NWS values.
T = Trace of Precipitation, MM = Missing Value Source: NWS Daily Summary

Daily Weather History Graph

Daily Weather History Graph

Search for Another Location

Airport or City:

Trip Planner

Search our weather history database for the weather conditions in past years. The results will help you decide how hot, cold, wet, or windy it might be!

Date:

Astronomy

Nov. 03, 2011 Rise Set
Actual Time 7:39 AM EDT 6:01 PM EDT
Civil Twilight 7:11 AM EDT 6:30 PM EDT
Nautical Twilight 6:38 AM EDT 7:02 PM EDT
Astronomical Twilight 6:06 AM EDT 7:34 PM EDT
Moon 2:26 PM EDT (11/3) 12:47 AM EDT (11/3)
Length of Visible Light 11h 18m
Length of Day
10h 21m
First Quarter, 60% of the Moon is Illuminated
Nov 3
First Quarter
Nov 10
Full
Nov 18
Last Quarter
Nov 25
New
Dec 2
First Quarter

Hourly Weather History & Observations

Time (EDT) Temp. Dew Point Humidity Pressure Visibility Wind Dir Wind Speed Gust Speed Precip Events Conditions
12:53 AM 36.0 °F 35.1 °F 97% 30.23 in 6.0 mi Calm Calm - N/A   Clear
1:53 AM 35.1 °F 34.0 °F 96% 30.20 in 3.0 mi Calm Calm - N/A   Clear
2:53 AM 34.0 °F 33.1 °F 96% 30.20 in 3.0 mi Calm Calm - N/A   Clear
3:53 AM 33.1 °F 32.0 °F 96% 30.18 in 3.0 mi Calm Calm - N/A   Clear
4:10 AM 33.8 °F 33.8 °F 100% 30.17 in 2.5 mi Calm Calm - N/A   Clear
4:18 AM 33.8 °F 33.8 °F 100% 30.17 in 4.0 mi Calm Calm - N/A   Clear
4:46 AM 33.8 °F 33.8 °F 100% 30.17 in 2.0 mi Calm Calm - N/A   Clear
4:53 AM 33.1 °F 32.0 °F 96% 30.17 in 2.0 mi Calm Calm - N/A   Clear
5:53 AM 34.0 °F 33.1 °F 96% 30.17 in 2.5 mi Calm Calm - N/A   Clear
6:27 AM 33.8 °F 33.8 °F 100% 30.15 in 1.8 mi Calm Calm - N/A   Clear
6:38 AM 33.8 °F 33.8 °F 100% 30.15 in 2.0 mi Calm Calm - N/A   Clear
6:44 AM 33.8 °F 32.0 °F 93% 30.15 in 1.0 mi Calm Calm - N/A   Clear
6:53 AM 33.1 °F 32.0 °F 96% 30.16 in 0.5 mi Calm Calm - N/A Fog Fog
7:16 AM 32.0 °F 30.2 °F 93% 30.15 in 0.8 mi Calm Calm - N/A   Clear
7:23 AM 32.0 °F 30.2 °F 93% 30.15 in 0.5 mi Calm Calm - N/A Fog Fog
8:21 AM 35.6 °F 35.6 °F 100% 30.15 in 1.0 mi Calm Calm - N/A   Clear
8:32 AM 37.4 °F 35.6 °F 93% 30.15 in 1.5 mi Calm Calm - N/A   Clear
8:53 AM 37.9 °F 37.0 °F 97% 30.16 in 1.8 mi Calm Calm - N/A   Clear
9:19 AM 39.2 °F 37.4 °F 93% 30.14 in 2.0 mi Calm Calm - N/A   Clear
9:53 AM 42.1 °F 39.9 °F 92% 30.15 in 2.5 mi Calm Calm - N/A   Clear
10:17 AM 44.6 °F 41.0 °F 87% 30.13 in 3.0 mi Calm Calm - N/A   Clear
10:53 AM 46.9 °F 42.1 °F 83% 30.13 in 4.0 mi ESE 3.5 mph - N/A   Haze
11:53 AM 53.1 °F 42.1 °F 66% 30.10 in 7.0 mi Calm Calm - N/A   Clear
12:53 PM 55.0 °F 42.1 °F 62% 30.06 in 8.0 mi SSE 4.6 mph - N/A   Clear
1:53 PM 57.0 °F 42.1 °F 57% 30.03 in 10.0 mi SSE 5.8 mph - N/A   Clear
2:53 PM 60.1 °F 43.0 °F 53% 30.00 in 10.0 mi Variable 3.5 mph - N/A   Clear
3:53 PM 60.1 °F 43.0 °F 53% 29.98 in 10.0 mi SE 5.8 mph - N/A   Clear
4:53 PM 60.1 °F 42.1 °F 51% 29.96 in 10.0 mi SSE 4.6 mph - N/A   Clear
5:53 PM 52.0 °F 42.1 °F 69% 29.96 in 10.0 mi Calm Calm - N/A   Clear
6:53 PM 45.0 °F 42.1 °F 90% 29.97 in 9.0 mi Calm Calm - N/A   Clear
7:53 PM 43.0 °F 41.0 °F 93% 29.99 in 9.0 mi Calm Calm - N/A   Clear
8:53 PM 41.0 °F 39.0 °F 93% 29.98 in 6.0 mi Calm Calm - N/A   Clear
10:53 PM 39.9 °F 39.0 °F 97% 29.97 in 5.0 mi Calm Calm - N/A   Clear
11:53 PM 43.0 °F 41.0 °F 93% 29.96 in 4.0 mi Calm Calm - N/A   Clear